Vertical_Velocity
-4 -0 -2 -5 -2 -3 2 3 1 -5 -2 -4 -2 -0 -3 -4 3 2 6 0 1 -4 0 9 6 -12 -25 -56 -63 19 -3 -9 -41 11 4 4 4 1 -0 0 -2 -4 1 0
3 -3 -6 1 2 4 2 1 -4 -6 -2 -5 0 -2 -0 -0 -1 6 -3 4 -1 0 3 -1 -10 -16 13 22 -4 -8 4 -21 -8 1 -0 -2 1 -3 -4 -3 0 -1 -2 -1
-1 -13 2 7 -1 5 -2 1 -1 4 -4 -3 -1 -2 -1 -8 2 6 7 -0 1 -0 -3 7 8 7 10 -5 -6 3 16 4 10 11 8 6 5 7 -5 -5 -3 -0 -1 -3
-3 -11 3 2 0 5 1 -0 2 1 1 -5 -6 -8 -1 -2 -3 0 6 2 1 -3 -1 -6 -8 1 -3 -6 9 7 5 4 -0 7 2 -5 -1 -7 -2 -0 2 3 0 1
-29 0 1 4 -8 2 -8 2 1 1 1 1 -10 -5 -15 1 2 4 6 4 6 5 1 -5 -2 1 2 -3 -6 3 4 3 4 0 1 -6 -7 -4 3 4 2 1 -0 2
-6 -4 7 -12 -3 -1 -1 2 -1 -1 -1 -4 -7 2 -12 -2 -4 3 7 7 3 5 1 0 0 1 0 3 5 3 4 2 -5 -10 -5 1 4 2 2 0 1 2 3 3
-3 -7 -5 11 6 1 2 0 -4 -7 -6 -8 -1 4 -17 -3 1 -6 -1 6 4 -1 -2 -7 -6 -2 -2 -2 1 -4 -7 -7 -3 1 3 2 1 -1 1 2 2 -1 -1 -1
-0 -8 4 -10 -6 -10 -2 -8 -8 -5 -2 -5 -1 -2 -21 1 3 1 2 -0 2 2 -1 1 -1 1 0 -5 -5 -2 -1 -1 1 1 1 1 0 1 1 -1 -1 -2 -1 -0
2 -8 -5 4 -1 -12 -15 1 -14 -2 -2 -1 -3 4 -7 3 5 4 3 2 3 0 4 4 7 6 3 2 -0 -1 -1 -0 0 1 1 -0 1 -1 -2 -2 -3 -1 -2 -3
-15 -1 -5 -9 14 3 -12 -9 -3 -4 -1 -0 -4 -1 -3 4 3 3 4 2 5 7 3 2 1 1 1 2 2 3 1 -1 -2 -1 -1 -2 -3 -1 -2 -2 -1 -0 -1 -2
-0 -1 -40 7 -2 -7 2 1 -1 -9 -5 -5 -2 -8 -6 -4 -3 -2 -0 1 -4 -1 0 1 2 2 2 2 0 -1 0 0 -1 -2 -1 -1 -1 -2 -2 -1 -2 -2 -2 -3
-9 -6 -1 -12 -14 -1 -5 -5 -4 -6 -8 -3 -6 -11 0 -2 -3 -3 -1 3 5 -0 1 2 -3 -2 1 1 -1 -2 -1 -3 -1 -2 -3 -2 -1 -0 -2 -2 -2 -2 -3 -2
-11 -4 1 -8 -10 -6 1 -0 -1 -1 -2 -3 -5 -12 -1 2 4 10 3 16 17 16 9 1 -2 -4 0 -0 -1 -1 -2 -3 -2 -3 -2 -0 -2 -2 0 0 -3 -1 -1 -3
5 -0 -9 -12 -13 -1 2 1 0 -4 -1 -4 -5 -3 1 1 1 4 8 2 -6 -5 -20 9 1 1 -1 -3 -2 -2 -2 -2 -1 -0 -2 -2 -1 -1 -3 -1 -1 -3 -2 -3
-7 -3 -0 -2 -2 3 -0 1 -0 1 -4 -5 -9 -1 -1 -2 -2 1 -6 -3 -4 -11 8 1 -1 4 -5 -0 -1 -1 -2 0 -2 -2 -0 0 -3 -3 -1 -3 -1 -2 0 -1
-4 -3 0 -0 1 2 2 -1 0 -0 -1 1 1 -0 -3 4 6 4 0 -0 -4 -2 -1 0 6 -3 -2 -1 -1 -3 -1 -2 -2 -1 -1 -3 0 -1 -0 2 2 1 3 2
2 1 -0 -4 0 2 8 -10 -2 -2 0 -2 -0 -4 0 2 2 1 -1 -2 -3 4 0 -2 -1 -2 -0 1 -3 -3 -3 -2 -1 -1 -1 1 5 3 3 -1 -1 -0 -0 -1
1 2 0 -2 2 4 -16 -0 0 2 -4 0 -0 2 1 1 9 3 4 -9 2 -1 -2 1 1 1 2 0 -1 -2 -2 -1 -1 -2 -1 5 2 2 0 -0 1 1 -2 -3
1 1 -1 -3 -1 -12 2 -6 1 -4 -5 -3 -5 3 3 4 -8 5 4 7 -1 -0 5 1 1 1 0 0 -1 -2 -2 -1 -2 4 3 0 -0 -1 -2 -1 -2 -5 -4 -1
3 1 2 1 1 -5 -1 1 -1 -2 -0 2 -7 1 -3 -1 -4 2 9 3 2 2 -0 -4 2 -0 1 -1 -1 -3 -1 -1 2 0 -1 -3 -1 1 -1 -1 -2 -1 1 0
1 1 -2 -1 -1 -2 0 -1 4 -13 -21 4 -0 1 2 -3 -15 4 3 3 4 -0 -2 2 2 -1 -1 -2 -2 -2 0 -1 1 -2 -2 -1 2 -2 -1 -0 -1 -5 -2 3
-6 -5 -1 0 -2 -6 -1 -2 -11 -11 16 -9 -4 -11 -18 2 7 0 -0 -1 -0 -1 -2 -0 -2 -2 -1 -2 -3 -1 -0 -1 -3 -2 -1 1 -2 0 -1 -0 -1 -2 0 -4
-5 -13 -14 -12 -17 -5 -7 4 -4 0 -11 10 -15 4 10 -0 -0 -0 1 -1 -1 -2 -4 -3 -3 -3 -2 -3 -1 -1 -4 -2 -1 2 0 -4 1 -4 2 -2 -1 -1 2 8
-4 0 -3 -2 4 -2 -8 7 6 5 -0 4 -3 -6 2 -11 -1 2 -1 -2 -5 -0 -4 -3 -4 -3 -2 -2 -1 -2 2 -2 -1 -2 -2 2 1 -2 -0 1 2 2 2 8
4 -2 2 2 5 6 5 14 -1 13 3 -0 9 -10 -6 -4 3 -2 -5 -1 -2 -2 -3 -3 -3 -3 -2 -3 -4 4 -1 -3 -1 -1 0 -0 -1 2 -3 0 -2 -5 2 4
0 2 -1 1 5 5 -0 18 4 -9 1 2 -3 7 15 -2 -9 -7 2 -1 -4 -2 1 -1 -1 -3 -3 -0 -0 -0 -3 -1 -1 -0 -2 -1 -4 -3 -4 -1 -4 1 10 2
Height
1516 1524 1531 1523 1516 1512 1511 1513 1512 1496 1487 1489 1496 1497 1494 1488 1490 1493 1502 1508 1513 1516 1525 1527 1528 1531 1533 1551 1559 1562 1546 1551 1555 1560 1556 1553 1553 1554 1555 1555 1555 1554 1552 1549
1520 1523 1512 1509 1506 1506 1506 1511 1510 1493 1485 1486 1493 1494 1488 1489 1490 1490 1498 1505 1512 1518 1524 1527 1528 1527 1531 1536 1543 1554 1553 1552 1552 1555 1553 1550 1550 1553 1552 1553 1553 1551 1548 1547
1519 1509 1505 1505 1504 1506 1505 1504 1508 1507 1491 1489 1488 1497 1491 1487 1489 1497 1498 1503 1508 1512 1520 1527 1532 1535 1539 1538 1543 1550 1548 1548 1548 1549 1548 1547 1549 1549 1550 1551 1550 1547 1545 1543
1510 1503 1502 1503 1504 1499 1510 1493 1498 1500 1507 1527 1494 1538 1502 1491 1491 1501 1501 1503 1508 1513 1520 1524 1531 1535 1538 1541 1545 1545 1545 1543 1546 1544 1542 1545 1546 1550 1550 1548 1547 1544 1541 1539
1505 1500 1500 1501 1496 1494 1503 1493 1500 1501 1508 1508 1505 1526 1509 1488 1493 1502 1501 1504 1509 1513 1516 1523 1532 1534 1537 1539 1541 1543 1540 1542 1543 1541 1545 1546 1549 1549 1546 1544 1543 1540 1538 1537
1494 1489 1490 1490 1486 1487 1490 1497 1502 1502 1514 1542 1514 1517 1508 1499 1494 1498 1498 1503 1510 1513 1519 1526 1532 1535 1536 1539 1539 1539 1539 1540 1541 1543 1546 1547 1546 1544 1543 1541 1539 1538 1537 1534
1496 1491 1483 1483 1489 1486 1491 1509 1545 1548 1548 1547 1506 1515 1496 1481 1482 1483 1490 1499 1507 1513 1519 1526 1531 1533 1534 1537 1538 1538 1539 1541 1543 1544 1544 1543 1542 1540 1538 1537 1536 1534 1533 1532
1512 1513 1485 1475 1481 1493 1498 1511 1546 1555 1555 1532 1501 1519 1499 1478 1482 1489 1494 1500 1506 1513 1519 1526 1530 1532 1532 1533 1535 1536 1538 1539 1541 1542 1541 1540 1539 1537 1535 1534 1533 1532 1531 1530
1504 1499 1475 1472 1474 1479 1495 1509 1499 1520 1514 1533 1515 1497 1494 1484 1487 1490 1498 1504 1508 1513 1518 1524 1530 1531 1530 1532 1533 1534 1536 1537 1538 1538 1538 1537 1536 1534 1534 1532 1531 1530 1529 1527
1486 1505 1475 1471 1469 1471 1481 1485 1512 1521 1543 1546 1519 1508 1509 1496 1496 1494 1497 1502 1510 1516 1518 1523 1526 1528 1528 1530 1532 1533 1534 1535 1535 1535 1535 1534 1534 1533 1533 1531 1530 1529 1526 1525
1476 1492 1482 1475 1478 1478 1484 1492 1494 1504 1515 1539 1539 1520 1483 1485 1489 1492 1494 1500 1506 1513 1516 1521 1523 1526 1527 1529 1530 1531 1533 1533 1534 1534 1534 1534 1534 1533 1532 1531 1529 1527 1525 1523
1466 1480 1495 1477 1462 1460 1463 1477 1487 1520 1514 1510 1517 1517 1474 1477 1480 1482 1488 1495 1504 1511 1515 1521 1524 1528 1529 1528 1529 1530 1531 1532 1533 1534 1534 1534 1533 1532 1531 1530 1528 1526 1524 1522
1459 1479 1496 1484 1470 1459 1467 1464 1472 1482 1493 1507 1522 1518 1475 1474 1474 1483 1488 1501 1512 1520 1519 1521 1524 1526 1528 1530 1530 1531 1531 1532 1534 1534 1534 1534 1532 1532 1531 1529 1527 1526 1524 1522
1442 1464 1471 1490 1476 1467 1465 1462 1462 1479 1505 1499 1498 1489 1479 1483 1483 1487 1491 1500 1511 1522 1532 1528 1526 1527 1527 1532 1530 1530 1531 1533 1534 1534 1533 1533 1533 1532 1530 1529 1527 1525 1522 1520
1441 1461 1458 1459 1455 1456 1462 1464 1460 1472 1476 1490 1482 1480 1478 1478 1483 1487 1490 1498 1501 1503 1525 1525 1526 1527 1527 1530 1529 1529 1531 1533 1533 1533 1533 1533 1532 1530 1529 1527 1526 1524 1522 1519
1446 1455 1451 1459 1450 1451 1459 1457 1457 1456 1459 1465 1466 1472 1464 1472 1477 1485 1488 1492 1497 1504 1511 1520 1524 1524 1527 1527 1526 1527 1530 1531 1531 1531 1532 1531 1531 1530 1529 1527 1525 1523 1520 1518
1459 1458 1459 1469 1453 1454 1469 1454 1453 1453 1450 1457 1471 1467 1467 1473 1475 1481 1483 1486 1494 1505 1511 1518 1520 1522 1523 1523 1524 1526 1529 1530 1530 1530 1531 1531 1531 1530 1528 1526 1523 1521 1519 1515
1455 1455 1461 1467 1461 1483 1444 1437 1440 1446 1441 1447 1460 1465 1470 1473 1476 1478 1480 1483 1495 1502 1510 1515 1517 1519 1520 1521 1523 1526 1528 1528 1529 1530 1530 1530 1529 1528 1526 1524 1522 1519 1516 1512
1445 1452 1462 1471 1468 1450 1441 1438 1442 1447 1447 1439 1451 1456 1463 1473 1474 1483 1484 1486 1493 1501 1508 1511 1513 1515 1518 1520 1523 1525 1527 1528 1529 1529 1529 1528 1527 1525 1524 1522 1520 1517 1514 1511
1438 1443 1449 1457 1466 1467 1441 1437 1435 1431 1460 1447 1439 1454 1461 1466 1484 1491 1489 1487 1495 1500 1505 1509 1511 1513 1517 1520 1522 1524 1526 1527 1528 1528 1527 1526 1525 1524 1522 1520 1518 1516 1513 1509
1446 1450 1454 1455 1455 1444 1435 1435 1431 1457 1470 1445 1450 1453 1458 1462 1470 1482 1488 1492 1495 1500 1504 1509 1511 1514 1518 1520 1522 1524 1525 1526 1527 1526 1525 1525 1524 1522 1520 1518 1516 1513 1510 1507
1440 1452 1459 1463 1471 1468 1438 1435 1448 1444 1444 1443 1448 1458 1477 1468 1472 1480 1487 1493 1498 1501 1505 1509 1512 1515 1518 1520 1522 1524 1525 1525 1525 1525 1524 1523 1522 1520 1518 1516 1514 1511 1508 1506
1437 1431 1446 1447 1447 1436 1441 1433 1436 1440 1440 1445 1450 1455 1473 1469 1474 1483 1487 1493 1499 1503 1505 1509 1512 1515 1517 1520 1522 1524 1525 1525 1525 1524 1523 1522 1520 1518 1516 1514 1511 1509 1506 1504
1415 1413 1427 1426 1429 1427 1441 1437 1429 1435 1437 1444 1451 1460 1465 1471 1477 1483 1487 1494 1501 1504 1506 1510 1512 1515 1517 1520 1522 1524 1525 1524 1524 1522 1521 1520 1518 1516 1514 1512 1510 1507 1504 1501
1431 1425 1429 1415 1422 1430 1433 1434 1432 1431 1435 1444 1452 1458 1463 1468 1476 1480 1489 1495 1501 1504 1507 1510 1512 1515 1518 1520 1522 1524 1524 1524 1523 1522 1520 1518 1516 1514 1512 1509 1507 1505 1502 1498
1434 1434 1433 1430 1422 1426 1427 1432 1432 1431 1438 1446 1450 1459 1464 1466 1474 1486 1492 1495 1500 1504 1508 1510 1513 1515 1518 1520 1523 1523 1523 1522 1522 1521 1518 1517 1515 1513 1510 1509 1507 1504 1499 1496